Winfield, KS

8:54 AM CST on February 19, 2017 (GMT -0600)
Strother

Weather History for KWLD - April, 2013

Change the Weather History Date:

Tuesday, April 9, 2013

  Actual Average Record
Temperature  
Mean Temperature 56 °F -  
Max Temperature 79 °F 65 °F 88 °F (2011)
Min Temperature 35 °F 42 °F 21 °F (2003)
Degree Days  
Heating Degree Days 9    
Growing Degree Days 6 (Base 50)    
Moisture  
Dew Point 53 °F    
Average Humidity 80    
Maximum Humidity 93    
Minimum Humidity 62    
Precipitation  
Precipitation 0.08 in - - ()
Sea Level Pressure  
Sea Level Pressure 29.70 in    
Wind  
Wind Speed 17 mph (South)    
Max Wind Speed 28 mph    
Max Gust Speed 40 mph    
Visibility 9 miles    
Events Rain , Thunderstorm    
Averages and records for this station are not official NWS values.
T = Trace of Precipitation, MM = Missing Value Source: NWS Daily Summary

Daily Weather History Graph

Daily Weather History Graph

Search for Another Location

Airport or City:

Trip Planner

Search our weather history database for the weather conditions in past years. The results will help you decide how hot, cold, wet, or windy it might be!

Date:

Astronomy

Apr. 09, 2013 Rise Set
Actual Time 7:01 AM CDT 7:58 PM CDT
Civil Twilight 6:35 AM CDT 8:24 PM CDT
Nautical Twilight 6:03 AM CDT 8:56 PM CDT
Astronomical Twilight 5:31 AM CDT 9:28 PM CDT
Moon 6:24 AM CDT (4/9) 7:34 PM CDT (4/9)
Length of Visible Light 13h 49m
Length of Day
12h 56m
Waning Crescent, 1% of the Moon is Illuminated
Apr 9
Waning Crescent
Apr 10
New
Apr 18
First Quarter
Apr 25
Full
May 2
Last Quarter

Hourly Weather History & Observations

Time (CDT) Temp. Windchill Dew Point Humidity Pressure Visibility Wind Dir Wind Speed Gust Speed Precip Events Conditions
12:54 AM 69.1 °F - 62.1 °F 78% 29.60 in 9.0 mi South 19.6 mph 25.3 mph N/A   Overcast
1:20 AM 69.8 °F - 62.6 °F 78% 29.62 in 9.0 mi SSE 17.3 mph 24.2 mph N/A   Overcast
1:54 AM 69.1 °F - 62.1 °F 78% 29.59 in 9.0 mi SSE 17.3 mph 25.3 mph N/A   Overcast
2:03 AM 69.8 °F - 60.8 °F 73% 29.61 in 9.0 mi SSE 20.7 mph 25.3 mph N/A   Overcast
2:54 AM 69.1 °F - 61.0 °F 75% 29.57 in 10.0 mi SSE 17.3 mph - N/A   Overcast
3:54 AM 68.0 °F - 61.0 °F 78% 29.57 in 10.0 mi South 13.8 mph 23.0 mph N/A   Overcast
4:54 AM 68.0 °F - 61.0 °F 78% 29.58 in 10.0 mi South 17.3 mph 25.3 mph N/A   Overcast
5:54 AM 68.0 °F - 60.1 °F 76% 29.59 in 10.0 mi South 17.3 mph 26.5 mph N/A   Overcast
6:54 AM 66.9 °F - 59.0 °F 76% 29.61 in 10.0 mi South 12.7 mph - N/A   Overcast
7:54 AM 66.0 °F - 60.1 °F 81% 29.63 in 9.0 mi SSE 11.5 mph - N/A   Overcast
8:01 AM 66.2 °F - 60.8 °F 83% 29.66 in 9.0 mi SSE 10.4 mph - N/A   Overcast
8:54 AM 66.9 °F - 60.1 °F 79% 29.64 in 10.0 mi SSE 13.8 mph - N/A   Overcast
9:54 AM 68.0 °F - 61.0 °F 78% 29.66 in 9.0 mi SSE 13.8 mph - N/A   Overcast
10:54 AM 69.1 °F - 62.1 °F 78% 29.67 in 8.0 mi SSE 11.5 mph - N/A   Overcast
11:37 AM 69.8 °F - 62.6 °F 78% 29.70 in 7.0 mi South 12.7 mph - N/A   Overcast
11:49 AM 69.8 °F - 62.6 °F 78% 29.70 in 7.0 mi South 10.4 mph - N/A   Overcast
11:54 AM 70.0 °F - 63.0 °F 78% 29.67 in 7.0 mi SSE 15.0 mph - N/A   Overcast
12:54 PM 73.0 °F - 63.0 °F 71% 29.63 in 7.0 mi SSE 18.4 mph - N/A   Mostly Cloudy
1:54 PM 77.0 °F - 63.0 °F 62% 29.62 in 8.0 mi SSE 20.7 mph 25.3 mph N/A   Scattered Clouds
2:54 PM 77.0 °F - 63.0 °F 62% 29.62 in 9.0 mi SSE 16.1 mph 24.2 mph N/A   Mostly Cloudy
3:54 PM 75.0 °F - 64.0 °F 69% 29.63 in 9.0 mi SSE 13.8 mph - N/A   Overcast
4:54 PM 77.0 °F - 63.0 °F 62% 29.62 in 9.0 mi SSE 17.3 mph - N/A   Partly Cloudy
5:47 PM 55.4 °F - 50.0 °F 82% 29.71 in 10.0 mi NW 20.7 mph 27.6 mph N/A   Overcast
5:54 PM 54.0 °F - 48.9 °F 83% 29.70 in 10.0 mi NNW 19.6 mph 26.5 mph N/A   Overcast
6:54 PM 51.1 °F - 46.0 °F 83% 29.73 in 10.0 mi NNW 21.9 mph - N/A   Mostly Cloudy
7:12 PM 50.0 °F - 44.6 °F 82% 29.76 in 10.0 mi NNW 18.4 mph 24.2 mph N/A   Mostly Cloudy
7:54 PM 46.9 °F - 43.0 °F 86% 29.75 in 10.0 mi North 18.4 mph 26.5 mph N/A   Overcast
8:32 PM 46.4 °F 39.2 °F 42.8 °F 87% 29.75 in 10.0 mi NNW 18.4 mph 27.6 mph N/A   Overcast
8:54 PM 45.0 °F 36.4 °F 41.0 °F 86% 29.78 in 10.0 mi NW 23.0 mph 27.6 mph N/A   Overcast
9:54 PM 41.0 °F 31.9 °F 37.0 °F 86% 29.88 in 10.0 mi WNW 19.6 mph - N/A   Overcast
10:54 PM 37.0 °F 24.9 °F 33.1 °F 86% 29.95 in 10.0 mi NW 27.6 mph 40.3 mph N/A   Overcast
11:23 PM 35.6 °F 25.2 °F 33.8 °F 93% 29.90 in 6.0 mi NNE 18.4 mph 26.5 mph 0.01 in Rain , Thunderstorm Thunderstorms and Rain
11:27 PM 35.6 °F 25.5 °F 33.8 °F 93% 29.89 in 5.0 mi NNE 17.3 mph 24.2 mph 0.03 in Rain , Thunderstorm Thunderstorms and Rain
11:39 PM 35.6 °F 25.9 °F 33.8 °F 93% 29.90 in 6.0 mi North 16.1 mph 25.3 mph 0.06 in Rain , Thunderstorm Thunderstorms and Rain
11:54 PM 36.0 °F 25.0 °F 34.0 °F 93% 29.88 in 7.0 mi NNW 20.7 mph - 0.08 in Rain , Thunderstorm Light Thunderstorms and Rain
11:57 PM 35.6 °F 25.5 °F 33.8 °F 93% 29.90 in 8.0 mi NNW 17.3 mph 27.6 mph 0.00 in Rain Light Rain